Weather History for VTUK - May, 2013

Change the Weather History Date:

Tuesday, May 7, 2013

  Actual Average Record
Temperature  
Mean Temperature 86 °F -  
Max Temperature 94 °F 94 °F - ()
Min Temperature 78 °F 77 °F - ()
Cooling Degree Days 21    
Growing Degree Days 36 (Base 50)    
Moisture  
Dew Point 74 °F    
Average Humidity 64    
Maximum Humidity 94    
Minimum Humidity 43    
Precipitation  
Precipitation 0.00 in 0.23 in - ()
Sea Level Pressure  
Sea Level Pressure 29.77 in    
Wind  
Wind Speed 3 mph ()    
Max Wind Speed 13 mph    
Max Gust Speed -    
Visibility 6.2 miles    
Events      
T = Trace of Precipitation, MM = Missing Value Source: Averaged Metar Reports

Daily Weather History Graph

Daily Weather History Graph

Search for Another Location

Airport or City:

Trip Planner

Search our weather history database for the weather conditions in past years. The results will help you decide how hot, cold, wet, or windy it might be!

Date:

Astronomy

May. 07, 2013 Rise Set
Actual Time 5:41 AM ICT 6:29 PM ICT
Civil Twilight 5:18 AM ICT 6:52 PM ICT
Nautical Twilight 4:51 AM ICT 7:19 PM ICT
Astronomical Twilight 4:24 AM ICT 7:46 PM ICT
Moon 3:34 AM ICT (5/7) 4:16 PM ICT (5/7)
Length of Visible Light 13h 33m
Length of Day
12h 48m
Waning Crescent, 8% of the Moon is Illuminated
May 7
Waning Crescent
May 10
New
May 18
First Quarter
May 25
Full
Jun 1
Last Quarter

Hourly Weather History & Observations

Time (ICT) Temp. Heat Index Dew Point Humidity Pressure Visibility Wind Dir Wind Speed Gust Speed Precip Events Conditions
1:00 AM 84 °F - 73 °F 62% 29.76 in 6 mi ESE 3.5 mph - -   Scattered Clouds
6:00 AM 78.8 °F - 75.2 °F 89% 29.77 in 6.2 mi Calm Calm - N/A   Scattered Clouds
7:00 AM 80 °F - 73 °F 73% 29.79 in 6 mi WSW 2.3 mph - -   Partly Cloudy
7:00 AM 80.6 °F 86.2 °F 75.2 °F 84% 29.83 in 6.2 mi WSW 3.5 mph - N/A   Scattered Clouds
8:00 AM 78.8 °F - 77.0 °F 94% 29.86 in 6.2 mi WNW 4.6 mph - N/A   Scattered Clouds
9:00 AM - - 77.0 °F N/A% 29.86 in 6.2 mi NNW 3.5 mph - N/A   Mostly Cloudy
10:00 AM 84.2 °F 90.9 °F 73.4 °F 70% 29.89 in 6.2 mi North 12.7 mph - N/A   Mostly Cloudy
11:00 AM 86.0 °F 93.4 °F 73.4 °F 66% 29.86 in 6.2 mi NNW 6.9 mph - N/A   Mostly Cloudy
12:00 PM 89.6 °F 98.2 °F 73.4 °F 59% 29.80 in 6.2 mi Variable 3.5 mph - N/A   Mostly Cloudy
1:00 PM 90 °F - 71 °F 43% 29.77 in 6 mi NNW 5.8 mph - -   Partly Cloudy
1:00 PM 89.6 °F 98.2 °F 73.4 °F 59% 29.80 in 6.2 mi NNW 6.9 mph - N/A   Mostly Cloudy
2:00 PM 91.4 °F 102.5 °F 75.2 °F 59% 29.77 in 6.2 mi Variable 4.6 mph - N/A   Mostly Cloudy
3:00 PM 91.4 °F 100.1 °F 73.4 °F 55% 29.71 in 6.2 mi Variable 2.3 mph - N/A   Scattered Clouds
4:00 PM 93.2 °F 100.5 °F 71.6 °F 49% 29.71 in 6.2 mi Variable 3.5 mph - N/A   Scattered Clouds
5:00 PM 93.2 °F 100.5 °F 71.6 °F 49% 29.68 in 6.2 mi NNW 3.5 mph - N/A   Partly Cloudy
6:00 PM 91.4 °F 100.1 °F 73.4 °F 55% 29.68 in 6.2 mi ENE 3.5 mph - N/A   Scattered Clouds
7:00 PM 89 °F - 71 °F 46% 29.69 in 6 mi Calm Calm - -   Scattered Clouds
7:00 PM 87.8 °F 95.6 °F 73.4 °F 62% 29.68 in 6.2 mi Variable 2.3 mph - N/A   Partly Cloudy
8:00 PM 86.0 °F 95.1 °F 75.2 °F 70% 29.71 in 6.2 mi ESE 2.3 mph - N/A   Partly Cloudy